Time,TemperatureF,DewpointF,PressureIn,WindDirection,WindDirectionDegrees,WindSpeedMPH,WindSpeedGustMPH,Humidity,HourlyPrecipIn,Conditions,Clouds,dailyrainin,SoftwareType,DateUTC
2013-01-07 00:01:00,25.2,19.9,29.77,NE,54,0.0,1.0,80,0.00,,---,0.00,VWS V14.00,2013-01-07 06:01:00,
2013-01-07 00:06:00,25.2,19.9,29.77,NE,54,0.0,1.0,80,0.00,,---,0.00,VWS V14.00,2013-01-07 06:06:00,
2013-01-07 00:11:00,25.7,20.7,29.77,NE,54,0.0,1.0,81,0.00,,---,0.00,VWS V14.00,2013-01-07 06:11:00,
2013-01-07 00:16:00,26.1,21.0,29.77,NE,54,0.0,1.0,81,0.00,,---,0.00,VWS V14.00,2013-01-07 06:16:00,
2013-01-07 00:21:00,26.1,21.0,29.77,NE,54,0.0,1.0,81,0.00,,---,0.00,VWS V14.00,2013-01-07 06:21:00,
2013-01-07 00:26:00,26.1,21.0,29.77,NE,54,0.0,1.0,81,0.00,,---,0.00,VWS V14.00,2013-01-07 06:26:00,
2013-01-07 00:31:00,26.1,21.0,29.77,NE,54,0.0,1.0,81,0.00,,---,0.00,VWS V14.00,2013-01-07 06:31:00,
2013-01-07 00:36:00,26.1,21.0,29.77,NE,54,0.0,1.0,81,0.00,,---,0.00,VWS V14.00,2013-01-07 06:36:00,
2013-01-07 00:41:00,26.1,21.0,29.77,NE,54,0.0,1.0,81,0.00,,---,0.00,VWS V14.00,2013-01-07 06:41:00,
2013-01-07 00:46:00,26.1,21.0,29.77,NE,54,0.0,1.0,81,0.00,,---,0.00,VWS V14.00,2013-01-07 06:46:00,
2013-01-07 00:51:00,26.1,21.3,29.77,NE,54,0.0,1.0,82,0.00,,---,0.00,VWS V14.00,2013-01-07 06:51:00,
2013-01-07 00:56:00,25.2,20.2,29.77,NE,54,0.0,1.0,81,0.00,,---,0.00,VWS V14.00,2013-01-07 06:56:00,
2013-01-07 01:01:00,24.4,19.5,29.77,NE,54,0.0,1.0,81,0.00,,---,0.00,VWS V14.00,2013-01-07 07:01:00,
2013-01-07 01:06:00,24.1,19.1,29.77,NE,54,0.0,1.0,81,0.00,,---,0.00,VWS V14.00,2013-01-07 07:06:00,
2013-01-07 01:11:00,23.9,18.9,29.77,NE,54,0.0,1.0,81,0.00,,---,0.00,VWS V14.00,2013-01-07 07:11:00,
2013-01-07 01:17:00,23.7,18.8,29.77,NE,54,0.0,1.0,81,0.00,,---,0.00,VWS V14.00,2013-01-07 07:17:00,
2013-01-07 01:22:00,23.7,18.8,29.77,NE,54,0.0,1.0,81,0.00,,---,0.00,VWS V14.00,2013-01-07 07:22:00,
2013-01-07 01:27:00,24.3,19.6,29.77,NE,54,0.0,1.0,82,0.00,,---,0.00,VWS V14.00,2013-01-07 07:27:00,
2013-01-07 01:32:00,24.6,19.9,29.77,NE,54,0.0,1.0,82,0.00,,---,0.00,VWS V14.00,2013-01-07 07:32:00,
2013-01-07 01:37:00,24.8,20.4,29.77,NE,54,0.0,1.0,83,0.00,,---,0.00,VWS V14.00,2013-01-07 07:37:00,
2013-01-07 01:42:00,25.2,20.7,29.77,NE,54,0.0,1.0,83,0.00,,---,0.00,VWS V14.00,2013-01-07 07:42:00,
2013-01-07 01:47:00,25.5,21.1,29.77,NE,54,0.0,1.0,83,0.00,,---,0.00,VWS V14.00,2013-01-07 07:47:00,
2013-01-07 01:52:00,25.5,21.1,29.77,NE,54,0.0,1.0,83,0.00,,---,0.00,VWS V14.00,2013-01-07 07:52:00,
2013-01-07 01:57:00,25.5,21.1,29.77,NE,54,0.0,1.0,83,0.00,,---,0.00,VWS V14.00,2013-01-07 07:57:00,
2013-01-07 02:02:00,25.3,20.9,29.77,NE,54,0.0,1.0,83,0.00,,---,0.00,VWS V14.00,2013-01-07 08:02:00,
2013-01-07 02:07:00,24.6,20.2,29.77,NE,54,0.0,1.0,83,0.00,,---,0.00,VWS V14.00,2013-01-07 08:07:00,
2013-01-07 02:12:00,23.9,19.5,29.77,NE,54,0.0,1.0,83,0.00,,---,0.00,VWS V14.00,2013-01-07 08:12:00,
2013-01-07 02:17:00,23.5,18.9,29.77,NE,54,0.0,1.0,82,0.00,,---,0.00,VWS V14.00,2013-01-07 08:17:00,
2013-01-07 02:22:00,23.2,18.5,29.77,NE,54,0.0,1.0,82,0.00,,---,0.00,VWS V14.00,2013-01-07 08:22:00,
2013-01-07 02:27:00,23.0,18.6,29.77,NE,54,0.0,1.0,83,0.00,,---,0.00,VWS V14.00,2013-01-07 08:27:00,
2013-01-07 02:32:00,22.8,18.4,29.77,NE,54,0.0,1.0,83,0.00,,---,0.00,VWS V14.00,2013-01-07 08:32:00,
2013-01-07 02:37:00,22.5,18.1,29.77,NE,54,0.0,1.0,83,0.00,,---,0.00,VWS V14.00,2013-01-07 08:37:00,
2013-01-07 02:42:00,22.5,18.1,29.77,NE,54,0.0,1.0,83,0.00,,---,0.00,VWS V14.00,2013-01-07 08:42:00,
2013-01-07 02:47:00,22.1,17.7,29.77,NE,54,0.0,1.0,83,0.00,,---,0.00,VWS V14.00,2013-01-07 08:47:00,
2013-01-07 02:52:00,21.9,17.6,29.77,NE,54,0.0,1.0,83,0.00,,---,0.00,VWS V14.00,2013-01-07 08:52:00,
2013-01-07 02:57:00,21.9,17.6,29.77,NE,54,0.0,1.0,83,0.00,,---,0.00,VWS V14.00,2013-01-07 08:57:00,
2013-01-07 03:02:00,21.9,17.6,29.77,NE,54,0.0,1.0,83,0.00,,---,0.00,VWS V14.00,2013-01-07 09:02:00,
2013-01-07 03:07:00,21.9,17.6,29.80,NE,54,0.0,1.0,83,0.00,,---,0.00,VWS V14.00,2013-01-07 09:07:00,
2013-01-07 03:12:00,21.9,17.6,29.80,NE,54,0.0,1.0,83,0.00,,---,0.00,VWS V14.00,2013-01-07 09:12:00,
2013-01-07 03:17:00,21.9,17.6,29.80,NE,54,0.0,1.0,83,0.00,,---,0.00,VWS V14.00,2013-01-07 09:17:00,
2013-01-07 03:22:00,21.9,17.8,29.77,NE,54,0.0,1.0,84,0.00,,---,0.00,VWS V14.00,2013-01-07 09:22:00,
2013-01-07 03:27:00,21.7,17.7,29.77,NE,54,0.0,1.0,84,0.00,,---,0.00,VWS V14.00,2013-01-07 09:27:00,
2013-01-07 03:32:00,21.7,17.7,29.77,NE,54,0.0,1.0,84,0.00,,---,0.00,VWS V14.00,2013-01-07 09:32:00,
2013-01-07 03:37:00,21.9,17.8,29.80,NE,54,0.0,1.0,84,0.00,,---,0.00,VWS V14.00,2013-01-07 09:37:00,
2013-01-07 03:42:00,22.1,18.0,29.80,NE,54,0.0,1.0,84,0.00,,---,0.00,VWS V14.00,2013-01-07 09:42:00,
2013-01-07 03:47:00,22.1,18.3,29.80,NE,54,0.0,1.0,85,0.00,,---,0.00,VWS V14.00,2013-01-07 09:47:00,
2013-01-07 03:52:00,22.6,18.8,29.77,NE,54,0.0,1.0,85,0.00,,---,0.00,VWS V14.00,2013-01-07 09:52:00,
2013-01-07 03:57:00,22.8,19.3,29.77,NE,54,0.0,1.0,86,0.00,,---,0.00,VWS V14.00,2013-01-07 09:57:00,
2013-01-07 04:02:00,23.0,19.5,29.77,NE,54,0.0,1.0,86,0.00,,---,0.00,VWS V14.00,2013-01-07 10:02:00,
2013-01-07 04:07:00,22.8,19.3,29.77,NE,54,0.0,1.0,86,0.00,,---,0.00,VWS V14.00,2013-01-07 10:07:00,
2013-01-07 04:12:00,22.8,19.3,29.77,NE,54,0.0,1.0,86,0.00,,---,0.00,VWS V14.00,2013-01-07 10:12:00,
2013-01-07 04:17:00,22.8,19.3,29.77,NE,54,0.0,1.0,86,0.00,,---,0.00,VWS V14.00,2013-01-07 10:17:00,
2013-01-07 04:22:00,23.0,19.5,29.77,NE,54,0.0,1.0,86,0.00,,---,0.00,VWS V14.00,2013-01-07 10:22:00,
2013-01-07 04:27:00,23.0,19.5,29.77,NE,54,0.0,1.0,86,0.00,,---,0.00,VWS V14.00,2013-01-07 10:27:00,
2013-01-07 04:32:00,23.0,19.7,29.77,NE,54,0.0,1.0,87,0.00,,---,0.00,VWS V14.00,2013-01-07 10:32:00,
2013-01-07 04:37:00,23.0,19.7,29.77,NE,54,0.0,1.0,87,0.00,,---,0.00,VWS V14.00,2013-01-07 10:37:00,
2013-01-07 04:42:00,23.0,19.7,29.77,NE,54,0.0,1.0,87,0.00,,---,0.00,VWS V14.00,2013-01-07 10:42:00,
2013-01-07 04:47:00,22.8,19.5,29.77,NE,54,0.0,1.0,87,0.00,,---,0.00,VWS V14.00,2013-01-07 10:47:00,
2013-01-07 04:52:00,22.6,19.1,29.77,NE,54,0.0,1.0,86,0.00,,---,0.00,VWS V14.00,2013-01-07 10:52:00,
2013-01-07 04:57:00,22.8,19.5,29.77,NE,54,0.0,1.0,87,0.00,,---,0.00,VWS V14.00,2013-01-07 10:57:00,
2013-01-07 05:02:00,22.8,19.5,29.77,NE,54,0.0,1.0,87,0.00,,---,0.00,VWS V14.00,2013-01-07 11:02:00,
2013-01-07 05:07:00,22.8,19.5,29.77,NE,54,0.0,1.0,87,0.00,,---,0.00,VWS V14.00,2013-01-07 11:07:00,
2013-01-07 05:12:00,23.0,19.7,29.77,NE,54,0.0,1.0,87,0.00,,---,0.00,VWS V14.00,2013-01-07 11:12:00,
2013-01-07 05:17:00,23.2,19.9,29.77,NE,54,0.0,1.0,87,0.00,,---,0.00,VWS V14.00,2013-01-07 11:17:00,
2013-01-07 05:22:00,23.4,20.1,29.77,NE,54,0.0,1.0,87,0.00,,---,0.00,VWS V14.00,2013-01-07 11:22:00,
2013-01-07 05:27:00,23.4,20.1,29.77,NE,54,0.0,1.0,87,0.00,,---,0.00,VWS V14.00,2013-01-07 11:27:00,
2013-01-07 05:32:00,23.4,20.1,29.77,NE,54,0.0,1.0,87,0.00,,---,0.00,VWS V14.00,2013-01-07 11:32:00,
2013-01-07 05:37:00,23.5,20.2,29.77,NE,54,0.0,1.0,87,0.00,,---,0.00,VWS V14.00,2013-01-07 11:37:00,
2013-01-07 05:42:00,23.5,20.2,29.77,NE,54,0.0,1.0,87,0.00,,---,0.00,VWS V14.00,2013-01-07 11:42:00,
2013-01-07 05:47:00,23.5,20.2,29.77,NE,54,0.0,1.0,87,0.00,,---,0.00,VWS V14.00,2013-01-07 11:47:00,
2013-01-07 05:52:00,23.5,20.2,29.77,NE,54,0.0,1.0,87,0.00,,---,0.00,VWS V14.00,2013-01-07 11:52:00,
2013-01-07 05:57:00,23.5,20.2,29.77,NE,54,0.0,1.0,87,0.00,,---,0.00,VWS V14.00,2013-01-07 11:57:00,
2013-01-07 06:02:00,23.5,20.2,29.77,NE,54,0.0,1.0,87,0.00,,---,0.00,VWS V14.00,2013-01-07 12:02:00,
2013-01-07 06:07:00,23.5,20.2,29.77,NE,54,0.0,1.0,87,0.00,,---,0.00,VWS V14.00,2013-01-07 12:07:00,
2013-01-07 06:12:00,23.4,20.1,29.77,NE,54,0.0,1.0,87,0.00,,---,0.00,VWS V14.00,2013-01-07 12:12:00,
2013-01-07 06:17:00,23.4,20.1,29.77,NE,54,0.0,1.0,87,0.00,,---,0.00,VWS V14.00,2013-01-07 12:17:00,
2013-01-07 06:22:00,23.4,20.1,29.77,NE,54,0.0,1.0,87,0.00,,---,0.00,VWS V14.00,2013-01-07 12:22:00,
2013-01-07 06:27:00,23.4,20.1,29.77,NE,54,0.0,1.0,87,0.00,,---,0.00,VWS V14.00,2013-01-07 12:27:00,
2013-01-07 06:32:00,23.5,20.2,29.77,NE,54,0.0,1.0,87,0.00,,---,0.00,VWS V14.00,2013-01-07 12:32:00,
2013-01-07 06:37:00,23.5,20.2,29.77,ENE,66,0.0,1.0,87,0.00,,---,0.00,VWS V14.00,2013-01-07 12:37:00,
2013-01-07 06:42:00,23.2,19.9,29.77,ENE,66,0.0,1.0,87,0.00,,---,0.00,VWS V14.00,2013-01-07 12:42:00,
2013-01-07 06:47:00,23.2,19.9,29.77,ENE,66,0.0,1.0,87,0.00,,---,0.00,VWS V14.00,2013-01-07 12:47:00,
2013-01-07 06:52:00,23.4,20.1,29.77,ENE,67,0.0,1.0,87,0.00,,---,0.00,VWS V14.00,2013-01-07 12:52:00,
2013-01-07 06:57:00,23.2,19.9,29.77,ENE,67,0.0,1.0,87,0.00,,---,0.00,VWS V14.00,2013-01-07 12:57:00,
2013-01-07 07:02:00,23.0,19.7,29.77,ENE,66,0.0,1.0,87,0.00,,---,0.00,VWS V14.00,2013-01-07 13:02:00,
2013-01-07 07:07:00,22.8,19.5,29.80,ENE,66,0.0,1.0,87,0.00,,---,0.00,VWS V14.00,2013-01-07 13:07:00,
2013-01-07 07:12:00,22.1,18.8,29.80,ENE,66,0.0,1.0,87,0.00,,---,0.00,VWS V14.00,2013-01-07 13:12:00,
2013-01-07 07:17:00,22.1,18.8,29.80,ENE,67,0.0,1.0,87,0.00,,---,0.00,VWS V14.00,2013-01-07 13:17:00,
2013-01-07 07:22:00,22.5,19.2,29.80,ENE,66,0.0,1.0,87,0.00,,---,0.00,VWS V14.00,2013-01-07 13:22:00,
2013-01-07 07:27:00,22.6,19.4,29.80,ENE,66,0.0,1.0,87,0.00,,---,0.00,VWS V14.00,2013-01-07 13:27:00,
2013-01-07 07:32:00,22.8,19.5,29.80,ENE,66,0.0,1.0,87,0.00,,---,0.00,VWS V14.00,2013-01-07 13:32:00,
2013-01-07 07:37:00,23.0,19.7,29.80,ENE,66,0.0,1.0,87,0.00,,---,0.00,VWS V14.00,2013-01-07 13:37:00,
2013-01-07 07:42:00,23.2,19.9,29.80,ENE,66,0.0,1.0,87,0.00,,---,0.00,VWS V14.00,2013-01-07 13:42:00,
2013-01-07 07:47:00,23.5,20.2,29.80,ENE,66,0.0,1.0,87,0.00,,---,0.00,VWS V14.00,2013-01-07 13:47:00,
2013-01-07 07:52:00,24.1,20.8,29.80,ENE,67,0.0,1.0,87,0.00,,---,0.00,VWS V14.00,2013-01-07 13:52:00,
2013-01-07 07:57:00,24.8,21.8,29.80,ENE,70,0.0,1.0,88,0.00,,---,0.00,VWS V14.00,2013-01-07 13:57:00,
2013-01-07 08:02:00,25.5,22.2,29.80,ENE,70,0.0,1.0,87,0.00,,---,0.00,VWS V14.00,2013-01-07 14:02:00,
2013-01-07 08:07:00,26.1,22.7,29.80,ENE,70,0.0,1.0,87,0.00,,---,0.00,VWS V14.00,2013-01-07 14:07:00,
2013-01-07 08:12:00,26.4,23.1,29.80,East,80,0.0,1.0,87,0.00,,---,0.00,VWS V14.00,2013-01-07 14:12:00,
2013-01-07 08:17:00,26.8,23.2,29.80,ENE,71,0.0,1.0,86,0.00,,---,0.00,VWS V14.00,2013-01-07 14:17:00,
2013-01-07 08:22:00,27.3,23.7,29.80,ENE,70,0.0,1.0,86,0.00,,---,0.00,VWS V14.00,2013-01-07 14:22:00,
2013-01-07 08:27:00,28.0,24.1,29.80,ENE,75,0.0,1.0,85,0.00,,---,0.00,VWS V14.00,2013-01-07 14:27:00,
2013-01-07 08:32:00,28.4,24.5,29.80,ESE,103,0.0,1.0,85,0.00,,---,0.00,VWS V14.00,2013-01-07 14:32:00,
2013-01-07 08:37:00,28.8,24.5,29.80,East,96,6.0,8.2,84,0.00,,---,0.00,VWS V14.00,2013-01-07 14:37:00,
2013-01-07 08:42:00,28.9,24.4,29.80,East,94,4.0,5.8,83,0.00,,---,0.00,VWS V14.00,2013-01-07 14:42:00,
2013-01-07 08:47:00,29.1,24.3,29.80,ESE,120,5.4,7.4,82,0.00,,---,0.00,VWS V14.00,2013-01-07 14:47:00,
2013-01-07 08:52:00,29.3,24.5,29.83,East,90,8.1,15.5,82,0.00,,---,0.00,VWS V14.00,2013-01-07 14:52:00,
2013-01-07 08:57:00,29.5,24.4,29.83,ESE,118,0.0,1.0,81,0.00,,---,0.00,VWS V14.00,2013-01-07 14:57:00,
2013-01-07 09:02:00,29.8,24.4,29.83,ESE,123,4.0,5.8,80,0.00,,---,0.00,VWS V14.00,2013-01-07 15:02:00,
2013-01-07 09:07:00,30.2,24.8,29.83,SE,127,6.0,11.5,80,0.00,,---,0.00,VWS V14.00,2013-01-07 15:07:00,
2013-01-07 09:12:00,30.4,24.7,29.83,ESE,118,5.4,10.7,79,0.00,,---,0.00,VWS V14.00,2013-01-07 15:12:00,
2013-01-07 09:17:00,30.9,24.9,29.83,ESE,120,4.7,11.5,78,0.00,,---,0.00,VWS V14.00,2013-01-07 15:17:00,
2013-01-07 09:22:00,31.1,25.0,29.83,SE,145,8.1,10.7,78,0.00,,---,0.00,VWS V14.00,2013-01-07 15:22:00,
2013-01-07 09:27:00,31.3,24.9,29.83,SE,140,8.1,10.7,77,0.00,,---,0.00,VWS V14.00,2013-01-07 15:27:00,
2013-01-07 09:32:00,31.6,25.0,29.83,SE,140,8.1,10.7,76,0.00,,---,0.00,VWS V14.00,2013-01-07 15:32:00,
2013-01-07 09:37:00,31.5,24.5,29.83,ESE,122,5.4,7.4,75,0.00,,---,0.00,VWS V14.00,2013-01-07 15:37:00,
2013-01-07 09:42:00,32.0,25.0,29.83,SE,139,3.4,11.5,75,0.00,,---,0.00,VWS V14.00,2013-01-07 15:42:00,
2013-01-07 09:47:00,32.4,25.3,29.83,ENE,77,4.7,6.6,75,0.00,,---,0.00,VWS V14.00,2013-01-07 15:47:00,
2013-01-07 09:52:00,32.5,25.2,29.83,SE,125,8.1,10.7,74,0.00,,---,0.00,VWS V14.00,2013-01-07 15:52:00,
2013-01-07 09:57:00,32.5,24.9,29.83,ESE,109,6.7,9.1,73,0.00,,---,0.00,VWS V14.00,2013-01-07 15:57:00,
2013-01-07 10:02:00,32.7,24.7,29.83,ESE,105,6.0,8.2,72,0.00,,---,0.00,VWS V14.00,2013-01-07 16:02:00,
2013-01-07 10:07:00,33.1,24.7,29.83,SE,134,6.0,8.2,71,0.00,,---,0.00,VWS V14.00,2013-01-07 16:07:00,
2013-01-07 10:12:00,33.3,24.9,29.83,ESE,111,5.4,7.4,71,0.00,,---,0.00,VWS V14.00,2013-01-07 16:12:00,
2013-01-07 10:17:00,33.6,24.9,29.83,East,83,8.7,11.5,70,0.00,,---,0.00,VWS V14.00,2013-01-07 16:17:00,
2013-01-07 10:22:00,33.8,24.4,29.83,ENE,77,4.7,7.4,68,0.00,,---,0.00,VWS V14.00,2013-01-07 16:22:00,
2013-01-07 10:27:00,34.0,24.5,29.83,SSE,147,6.0,9.9,68,0.00,,---,0.00,VWS V14.00,2013-01-07 16:27:00,
2013-01-07 10:32:00,34.3,24.9,29.83,SE,142,6.0,8.2,68,0.00,,---,0.00,VWS V14.00,2013-01-07 16:32:00,
2013-01-07 10:37:00,34.9,25.0,29.83,East,85,8.7,11.5,67,0.00,,---,0.00,VWS V14.00,2013-01-07 16:37:00,
2013-01-07 10:42:00,34.5,24.0,29.83,East,88,4.0,5.8,65,0.00,,---,0.00,VWS V14.00,2013-01-07 16:42:00,
2013-01-07 10:47:00,34.9,24.3,29.83,ESE,112,5.4,7.4,65,0.00,,---,0.00,VWS V14.00,2013-01-07 16:47:00,
2013-01-07 10:52:00,34.9,24.0,29.80,ENE,75,8.1,10.7,64,0.00,,---,0.00,VWS V14.00,2013-01-07 16:52:00,
2013-01-07 10:57:00,35.1,24.1,29.80,SE,143,4.7,10.7,64,0.00,,---,0.00,VWS V14.00,2013-01-07 16:57:00,
2013-01-07 11:02:00,35.6,24.3,29.80,SE,145,9.4,12.3,63,0.00,,---,0.00,VWS V14.00,2013-01-07 17:02:00,
2013-01-07 11:07:00,35.8,24.0,29.80,SE,145,7.4,9.9,62,0.00,,---,0.00,VWS V14.00,2013-01-07 17:07:00,
2013-01-07 11:12:00,36.3,24.6,29.80,SE,140,6.7,9.1,62,0.00,,---,0.00,VWS V14.00,2013-01-07 17:12:00,
2013-01-07 11:17:00,36.9,24.7,29.80,SE,136,4.7,6.6,61,0.00,,---,0.00,VWS V14.00,2013-01-07 17:17:00,
2013-01-07 11:22:00,36.9,24.3,29.80,ESE,109,0.0,6.6,60,0.00,,---,0.00,VWS V14.00,2013-01-07 17:22:00,
2013-01-07 11:27:00,37.0,24.5,29.80,ESE,113,8.7,11.5,60,0.00,,---,0.00,VWS V14.00,2013-01-07 17:27:00,
2013-01-07 11:32:00,37.0,24.1,29.80,ENE,65,0.0,1.0,59,0.00,,---,0.00,VWS V14.00,2013-01-07 17:32:00,
2013-01-07 11:37:00,37.8,24.3,29.77,East,88,4.0,5.8,58,0.00,,---,0.00,VWS V14.00,2013-01-07 17:37:00,
2013-01-07 11:42:00,37.8,23.9,29.77,ESE,110,5.4,7.4,57,0.00,,---,0.00,VWS V14.00,2013-01-07 17:42:00,
2013-01-07 11:47:00,37.8,23.9,29.77,ESE,103,4.7,6.6,57,0.00,,---,0.00,VWS V14.00,2013-01-07 17:47:00,
2013-01-07 11:52:00,38.1,24.2,29.77,ENE,75,4.0,5.8,57,0.00,,---,0.00,VWS V14.00,2013-01-07 17:52:00,
2013-01-07 11:57:00,38.3,24.4,29.77,SE,146,5.4,7.4,57,0.00,,---,0.00,VWS V14.00,2013-01-07 17:57:00,
2013-01-07 12:02:00,38.5,24.2,29.77,SE,143,8.1,10.7,56,0.00,,---,0.00,VWS V14.00,2013-01-07 18:02:00,
2013-01-07 12:07:00,38.7,24.3,29.74,SSE,159,6.0,8.2,56,0.00,,---,0.00,VWS V14.00,2013-01-07 18:07:00,
2013-01-07 12:12:00,39.0,24.7,29.74,SSE,155,0.0,5.8,56,0.00,,---,0.00,VWS V14.00,2013-01-07 18:12:00,
2013-01-07 12:17:00,40.1,25.2,29.74,SE,140,0.0,1.0,55,0.00,,---,0.00,VWS V14.00,2013-01-07 18:17:00,
2013-01-07 12:22:00,40.1,24.8,29.74,ENE,74,0.0,1.0,54,0.00,,---,0.00,VWS V14.00,2013-01-07 18:22:00,
2013-01-07 12:27:00,40.1,24.8,29.74,East,93,5.4,7.4,54,0.00,,---,0.00,VWS V14.00,2013-01-07 18:27:00,
2013-01-07 12:32:00,40.1,24.8,29.74,SE,144,3.4,5.0,54,0.00,,---,0.00,VWS V14.00,2013-01-07 18:32:00,
2013-01-07 12:37:00,40.6,24.9,29.74,SE,134,0.0,5.8,53,0.00,,---,0.00,VWS V14.00,2013-01-07 18:37:00,
2013-01-07 12:42:00,40.8,25.0,29.74,SE,137,5.4,10.7,53,0.00,,---,0.00,VWS V14.00,2013-01-07 18:42:00,
2013-01-07 12:47:00,40.5,24.7,29.71,ESE,117,4.7,6.6,53,0.00,,---,0.00,VWS V14.00,2013-01-07 18:47:00,
2013-01-07 12:52:00,41.2,24.9,29.71,South,183,0.0,1.0,52,0.00,,---,0.00,VWS V14.00,2013-01-07 18:52:00,
2013-01-07 12:57:00,41.5,25.2,29.71,SE,142,9.4,12.3,52,0.00,,---,0.00,VWS V14.00,2013-01-07 18:57:00,
2013-01-07 13:02:00,40.8,24.6,29.71,ESE,108,4.7,6.6,52,0.00,,---,0.00,VWS V14.00,2013-01-07 19:02:00,
2013-01-07 13:07:00,40.8,24.6,29.71,SSE,158,4.7,6.6,52,0.00,,---,0.00,VWS V14.00,2013-01-07 19:07:00,
2013-01-07 13:12:00,41.4,25.1,29.71,SE,127,0.0,1.0,52,0.00,,---,0.00,VWS V14.00,2013-01-07 19:12:00,
2013-01-07 13:17:00,41.5,24.8,29.71,ESE,123,4.7,10.7,51,0.00,,---,0.00,VWS V14.00,2013-01-07 19:17:00,
2013-01-07 13:22:00,41.7,24.9,29.71,SSE,149,0.0,8.2,51,0.00,,---,0.00,VWS V14.00,2013-01-07 19:22:00,
2013-01-07 13:27:00,41.9,25.1,29.71,SSW,201,0.0,1.0,51,0.00,,---,0.00,VWS V14.00,2013-01-07 19:27:00,
2013-01-07 13:32:00,42.3,25.0,29.71,SSE,153,0.0,1.0,50,0.00,,---,0.00,VWS V14.00,2013-01-07 19:32:00,
2013-01-07 13:37:00,42.8,25.0,29.71,SSE,165,4.0,5.8,49,0.00,,---,0.00,VWS V14.00,2013-01-07 19:37:00,
2013-01-07 13:42:00,42.6,25.3,29.71,SSE,165,6.0,8.2,50,0.00,,---,0.00,VWS V14.00,2013-01-07 19:42:00,
2013-01-07 13:47:00,42.4,25.1,29.71,SE,144,0.0,1.0,50,0.00,,---,0.00,VWS V14.00,2013-01-07 19:47:00,
2013-01-07 13:52:00,42.8,25.0,29.71,SE,142,4.7,6.6,49,0.00,,---,0.00,VWS V14.00,2013-01-07 19:52:00,
2013-01-07 13:57:00,43.0,25.1,29.71,SE,140,0.0,1.0,49,0.00,,---,0.00,VWS V14.00,2013-01-07 19:57:00,
2013-01-07 14:02:00,43.3,25.0,29.71,SSE,153,5.4,7.4,48,0.00,,---,0.00,VWS V14.00,2013-01-07 20:02:00,
2013-01-07 14:07:00,44.2,25.8,29.71,SSW,203,0.0,5.0,48,0.00,,---,0.00,VWS V14.00,2013-01-07 20:07:00,
2013-01-07 14:12:00,44.4,26.0,29.71,SSW,203,0.0,1.0,48,0.00,,---,0.00,VWS V14.00,2013-01-07 20:12:00,
2013-01-07 14:17:00,44.6,25.6,29.71,WSW,254,0.0,1.0,47,0.00,,---,0.00,VWS V14.00,2013-01-07 20:17:00,
2013-01-07 14:19:00,44.4,25.5,29.71,WSW,255,0.0,1.0,47,0.00,,---,0.00,VWS V14.00,2013-01-07 20:19:00,
2013-01-07 14:24:00,45.0,26.0,29.71,ENE,65,0.0,1.0,47,0.00,,---,0.00,VWS V14.00,2013-01-07 20:24:00,
2013-01-07 14:29:00,44.6,25.6,29.71,East,89,4.0,5.8,47,0.00,,---,0.00,VWS V14.00,2013-01-07 20:29:00,
2013-01-07 14:34:00,44.2,25.8,29.71,East,82,6.0,8.2,48,0.00,,---,0.00,VWS V14.00,2013-01-07 20:34:00,
2013-01-07 14:39:00,44.6,25.6,29.71,SE,137,6.0,9.1,47,0.00,,---,0.00,VWS V14.00,2013-01-07 20:39:00,
2013-01-07 14:44:00,44.4,26.0,29.71,SE,129,4.7,6.6,48,0.00,,---,0.00,VWS V14.00,2013-01-07 20:44:00,
2013-01-07 14:49:00,44.1,25.1,29.65,East,93,4.7,13.9,47,0.00,,---,0.00,VWS V14.00,2013-01-07 20:49:00,
2013-01-07 14:54:00,44.2,25.3,29.65,SE,146,8.7,11.5,47,0.00,,---,0.00,VWS V14.00,2013-01-07 20:54:00,
2013-01-07 14:59:00,44.2,25.3,29.65,ESE,120,9.4,14.7,47,0.00,,---,0.00,VWS V14.00,2013-01-07 20:59:00,
2013-01-07 15:04:00,44.2,24.8,29.65,ESE,123,8.7,11.5,46,0.00,,---,0.00,VWS V14.00,2013-01-07 21:04:00,
2013-01-07 15:09:00,44.2,24.8,29.65,East,92,8.1,10.7,46,0.00,,---,0.00,VWS V14.00,2013-01-07 21:09:00,
2013-01-07 15:14:00,44.1,24.1,29.65,SE,125,8.1,10.7,45,0.00,,---,0.00,VWS V14.00,2013-01-07 21:14:00,
2013-01-07 15:19:00,44.1,24.1,29.65,East,86,11.4,14.7,45,0.00,,---,0.00,VWS V14.00,2013-01-07 21:19:00,
2013-01-07 15:24:00,44.2,24.3,29.65,East,89,8.1,10.7,45,0.00,,---,0.00,VWS V14.00,2013-01-07 21:24:00,
2013-01-07 15:29:00,44.2,24.3,29.65,ESE,104,0.0,1.0,45,0.00,,---,0.00,VWS V14.00,2013-01-07 21:29:00,
2013-01-07 15:34:00,44.2,24.8,29.65,ESE,102,0.0,1.0,46,0.00,,---,0.00,VWS V14.00,2013-01-07 21:34:00,
2013-01-07 15:39:00,44.2,24.3,29.65,SSE,149,8.1,10.7,45,0.00,,---,0.00,VWS V14.00,2013-01-07 21:39:00,
2013-01-07 15:44:00,44.1,23.6,29.65,ESE,106,8.1,10.7,44,0.00,,---,0.00,VWS V14.00,2013-01-07 21:44:00,
2013-01-07 15:49:00,44.1,23.6,29.65,SE,139,9.4,12.3,44,0.00,,---,0.00,VWS V14.00,2013-01-07 21:49:00,
2013-01-07 15:54:00,43.9,23.4,29.65,SE,141,4.0,5.8,44,0.00,,---,0.00,VWS V14.00,2013-01-07 21:54:00,
2013-01-07 15:59:00,43.7,23.2,29.65,SE,146,5.4,7.4,44,0.00,,---,0.00,VWS V14.00,2013-01-07 21:59:00,
2013-01-07 16:04:00,43.3,23.4,29.65,ESE,102,6.0,8.2,45,0.00,,---,0.00,VWS V14.00,2013-01-07 22:04:00,
2013-01-07 16:09:00,43.2,23.3,29.65,ESE,115,5.4,9.9,45,0.00,,---,0.00,VWS V14.00,2013-01-07 22:09:00,
2013-01-07 16:14:00,43.2,23.3,29.65,SE,143,8.1,10.7,45,0.00,,---,0.00,VWS V14.00,2013-01-07 22:14:00,
2013-01-07 16:19:00,43.0,22.6,29.65,ESE,122,4.7,6.6,44,0.00,,---,0.00,VWS V14.00,2013-01-07 22:19:00,
2013-01-07 16:24:00,42.6,22.8,29.65,SE,140,3.4,5.0,45,0.00,,---,0.00,VWS V14.00,2013-01-07 22:24:00,
2013-01-07 16:29:00,42.4,22.6,29.65,SE,137,4.0,5.8,45,0.00,,---,0.00,VWS V14.00,2013-01-07 22:29:00,
2013-01-07 16:34:00,42.3,21.9,29.65,SSE,151,6.0,8.2,44,0.00,,---,0.00,VWS V14.00,2013-01-07 22:34:00,
2013-01-07 16:39:00,42.1,21.8,29.62,SE,136,4.0,5.8,44,0.00,,---,0.00,VWS V14.00,2013-01-07 22:39:00,
2013-01-07 16:44:00,41.9,21.6,29.62,SE,143,7.4,9.9,44,0.00,,---,0.00,VWS V14.00,2013-01-07 22:44:00,
2013-01-07 16:49:00,41.5,21.3,29.62,SSE,158,0.0,1.0,44,0.00,,---,0.00,VWS V14.00,2013-01-07 22:49:00,
2013-01-07 16:54:00,41.5,21.3,29.62,SSE,150,0.0,1.0,44,0.00,,---,0.00,VWS V14.00,2013-01-07 22:54:00,
2013-01-07 16:59:00,41.0,20.8,29.62,SSE,160,0.0,1.0,44,0.00,,---,0.00,VWS V14.00,2013-01-07 22:59:00,
2013-01-07 17:04:00,40.8,21.1,29.62,SSE,152,0.0,1.0,45,0.00,,---,0.00,VWS V14.00,2013-01-07 23:04:00,
2013-01-07 17:09:00,40.6,21.5,29.62,SSE,150,0.0,1.0,46,0.00,,---,0.00,VWS V14.00,2013-01-07 23:09:00,
2013-01-07 17:14:00,40.3,21.2,29.62,SSE,147,0.0,1.0,46,0.00,,---,0.00,VWS V14.00,2013-01-07 23:14:00,
2013-01-07 17:19:00,39.9,20.8,29.62,SSE,149,0.0,1.0,46,0.00,,---,0.00,VWS V14.00,2013-01-07 23:19:00,
2013-01-07 17:24:00,39.9,20.8,29.62,SSE,156,0.0,1.0,46,0.00,,---,0.00,VWS V14.00,2013-01-07 23:24:00,
2013-01-07 17:29:00,39.7,21.2,29.62,SSE,156,0.0,1.0,47,0.00,,---,0.00,VWS V14.00,2013-01-07 23:29:00,
2013-01-07 17:34:00,39.7,21.2,29.62,SSE,149,0.0,1.0,47,0.00,,---,0.00,VWS V14.00,2013-01-07 23:34:00,
2013-01-07 17:39:00,39.4,20.8,29.62,SE,146,0.0,1.0,47,0.00,,---,0.00,VWS V14.00,2013-01-07 23:39:00,
2013-01-07 17:44:00,39.4,20.8,29.62,SSE,156,4.7,6.6,47,0.00,,---,0.00,VWS V14.00,2013-01-07 23:44:00,
2013-01-07 17:49:00,39.0,21.0,29.62,SSE,159,4.7,6.6,48,0.00,,---,0.00,VWS V14.00,2013-01-07 23:49:00,
2013-01-07 17:54:00,39.0,21.0,29.62,SSE,165,4.7,6.6,48,0.00,,---,0.00,VWS V14.00,2013-01-07 23:54:00,
2013-01-07 17:59:00,39.0,21.0,29.62,South,177,0.0,1.0,48,0.00,,---,0.00,VWS V14.00,2013-01-07 23:59:00,
2013-01-07 18:04:00,38.1,20.7,29.62,South,178,0.0,1.0,49,0.00,,---,0.00,VWS V14.00,2013-01-08 00:04:00,
2013-01-07 18:09:00,36.1,19.3,29.62,South,178,0.0,1.0,50,0.00,,---,0.00,VWS V14.00,2013-01-08 00:09:00,
2013-01-07 18:14:00,35.4,19.6,29.62,South,178,0.0,1.0,52,0.00,,---,0.00,VWS V14.00,2013-01-08 00:14:00,
2013-01-07 18:19:00,34.9,19.5,29.62,South,178,0.0,1.0,53,0.00,,---,0.00,VWS V14.00,2013-01-08 00:19:00,
2013-01-07 18:24:00,34.9,19.5,29.62,South,177,0.0,1.0,53,0.00,,---,0.00,VWS V14.00,2013-01-08 00:24:00,
2013-01-07 18:29:00,34.7,19.8,29.62,South,178,0.0,1.0,54,0.00,,---,0.00,VWS V14.00,2013-01-08 00:29:00,
2013-01-07 18:34:00,34.5,19.6,29.65,South,178,0.0,1.0,54,0.00,,---,0.00,VWS V14.00,2013-01-08 00:34:00,
2013-01-07 18:39:00,34.0,19.5,29.65,South,178,0.0,1.0,55,0.00,,---,0.00,VWS V14.00,2013-01-08 00:39:00,
2013-01-07 18:44:00,33.6,19.6,29.65,South,178,0.0,1.0,56,0.00,,---,0.00,VWS V14.00,2013-01-08 00:44:00,
2013-01-07 18:49:00,33.3,19.3,29.65,South,178,0.0,1.0,56,0.00,,---,0.00,VWS V14.00,2013-01-08 00:49:00,
2013-01-07 18:54:00,32.9,19.4,29.65,South,178,0.0,1.0,57,0.00,,---,0.00,VWS V14.00,2013-01-08 00:54:00,
2013-01-07 18:59:00,33.1,19.5,29.65,South,179,0.0,1.0,57,0.00,,---,0.00,VWS V14.00,2013-01-08 00:59:00,
2013-01-07 19:04:00,33.3,19.7,29.65,South,179,0.0,1.0,57,0.00,,---,0.00,VWS V14.00,2013-01-08 01:04:00,
2013-01-07 19:09:00,33.1,19.9,29.65,South,179,0.0,1.0,58,0.00,,---,0.00,VWS V14.00,2013-01-08 01:09:00,
2013-01-07 19:14:00,32.9,19.8,29.65,South,179,0.0,1.0,58,0.00,,---,0.00,VWS V14.00,2013-01-08 01:14:00,
2013-01-07 19:19:00,32.5,19.4,29.65,South,179,0.0,1.0,58,0.00,,---,0.00,VWS V14.00,2013-01-08 01:19:00,
2013-01-07 19:24:00,32.4,19.6,29.65,South,179,0.0,1.0,59,0.00,,---,0.00,VWS V14.00,2013-01-08 01:24:00,
2013-01-07 19:29:00,31.6,19.0,29.65,South,179,0.0,1.0,59,0.00,,---,0.00,VWS V14.00,2013-01-08 01:29:00,
2013-01-07 19:34:00,31.5,19.2,29.65,South,179,0.0,1.0,60,0.00,,---,0.00,VWS V14.00,2013-01-08 01:34:00,
2013-01-07 19:39:00,30.9,19.1,29.62,South,179,0.0,1.0,61,0.00,,---,0.00,VWS V14.00,2013-01-08 01:39:00,
2013-01-07 19:44:00,30.7,19.3,29.62,South,179,0.0,1.0,62,0.00,,---,0.00,VWS V14.00,2013-01-08 01:44:00,
2013-01-07 19:49:00,30.2,19.1,29.62,South,179,0.0,1.0,63,0.00,,---,0.00,VWS V14.00,2013-01-08 01:49:00,
2013-01-07 19:54:00,30.0,19.0,29.62,South,179,0.0,1.0,63,0.00,,---,0.00,VWS V14.00,2013-01-08 01:54:00,
2013-01-07 19:59:00,30.0,19.0,29.62,South,179,0.0,1.0,63,0.00,,---,0.00,VWS V14.00,2013-01-08 01:59:00,
2013-01-07 20:04:00,29.8,19.2,29.62,South,179,0.0,1.0,64,0.00,,---,0.00,VWS V14.00,2013-01-08 02:04:00,
2013-01-07 20:09:00,29.8,19.5,29.62,South,179,0.0,1.0,65,0.00,,---,0.00,VWS V14.00,2013-01-08 02:09:00,
2013-01-07 20:14:00,29.7,19.4,29.62,South,179,0.0,1.0,65,0.00,,---,0.00,VWS V14.00,2013-01-08 02:14:00,
2013-01-07 20:19:00,29.8,19.9,29.62,South,179,0.0,1.0,66,0.00,,---,0.00,VWS V14.00,2013-01-08 02:19:00,
2013-01-07 20:24:00,29.5,19.5,29.62,South,179,0.0,1.0,66,0.00,,---,0.00,VWS V14.00,2013-01-08 02:24:00,
2013-01-07 20:29:00,29.5,19.5,29.62,South,179,0.0,1.0,66,0.00,,---,0.00,VWS V14.00,2013-01-08 02:29:00,
2013-01-07 20:34:00,29.3,19.7,29.62,South,179,0.0,1.0,67,0.00,,---,0.00,VWS V14.00,2013-01-08 02:34:00,
2013-01-07 20:39:00,28.6,19.0,29.62,South,179,0.0,1.0,67,0.00,,---,0.00,VWS V14.00,2013-01-08 02:39:00,
2013-01-07 20:44:00,28.6,19.4,29.62,South,179,0.0,1.0,68,0.00,,---,0.00,VWS V14.00,2013-01-08 02:44:00,
2013-01-07 20:49:00,28.6,19.4,29.62,South,179,0.0,1.0,68,0.00,,---,0.00,VWS V14.00,2013-01-08 02:49:00,
2013-01-07 20:54:00,28.6,19.7,29.62,South,179,0.0,1.0,69,0.00,,---,0.00,VWS V14.00,2013-01-08 02:54:00,
2013-01-07 20:59:00,28.6,20.0,29.62,South,179,0.0,1.0,70,0.00,,---,0.00,VWS V14.00,2013-01-08 02:59:00,
2013-01-07 21:04:00,28.4,20.2,29.62,South,179,0.0,1.0,71,0.00,,---,0.00,VWS V14.00,2013-01-08 03:04:00,
2013-01-07 21:09:00,27.7,19.5,29.62,South,179,0.0,1.0,71,0.00,,---,0.00,VWS V14.00,2013-01-08 03:09:00,
2013-01-07 21:14:00,27.9,19.7,29.62,South,179,0.0,1.0,71,0.00,,---,0.00,VWS V14.00,2013-01-08 03:14:00,
2013-01-07 21:19:00,27.7,19.9,29.62,South,179,0.0,1.0,72,0.00,,---,0.00,VWS V14.00,2013-01-08 03:19:00,
2013-01-07 21:24:00,27.5,19.7,29.62,South,179,0.0,1.0,72,0.00,,---,0.00,VWS V14.00,2013-01-08 03:24:00,
2013-01-07 21:29:00,27.1,19.3,29.62,South,179,0.0,1.0,72,0.00,,---,0.00,VWS V14.00,2013-01-08 03:29:00,
2013-01-07 21:34:00,27.0,19.1,29.62,South,179,0.0,1.0,72,0.00,,---,0.00,VWS V14.00,2013-01-08 03:34:00,
2013-01-07 21:39:00,26.8,19.0,29.62,South,179,0.0,1.0,72,0.00,,---,0.00,VWS V14.00,2013-01-08 03:39:00,
2013-01-07 21:44:00,26.6,19.1,29.62,South,179,0.0,1.0,73,0.00,,---,0.00,VWS V14.00,2013-01-08 03:44:00,
2013-01-07 21:49:00,26.4,19.0,29.62,South,179,0.0,1.0,73,0.00,,---,0.00,VWS V14.00,2013-01-08 03:49:00,
2013-01-07 21:54:00,26.2,19.1,29.62,South,179,0.0,1.0,74,0.00,,---,0.00,VWS V14.00,2013-01-08 03:54:00,
2013-01-07 21:59:00,26.1,18.9,29.62,South,179,0.0,1.0,74,0.00,,---,0.00,VWS V14.00,2013-01-08 03:59:00,
2013-01-07 22:04:00,26.1,18.9,29.62,South,179,0.0,1.0,74,0.00,,---,0.00,VWS V14.00,2013-01-08 04:04:00,
2013-01-07 22:09:00,26.1,19.2,29.62,South,179,0.0,1.0,75,0.00,,---,0.00,VWS V14.00,2013-01-08 04:09:00,
2013-01-07 22:14:00,26.1,19.2,29.62,South,179,0.0,1.0,75,0.00,,---,0.00,VWS V14.00,2013-01-08 04:14:00,
2013-01-07 22:19:00,26.2,19.7,29.62,South,179,0.0,1.0,76,0.00,,---,0.00,VWS V14.00,2013-01-08 04:19:00,
2013-01-07 22:24:00,26.4,19.9,29.62,South,179,0.0,1.0,76,0.00,,---,0.00,VWS V14.00,2013-01-08 04:24:00,
2013-01-07 22:29:00,26.4,19.9,29.62,South,179,0.0,1.0,76,0.00,,---,0.00,VWS V14.00,2013-01-08 04:29:00,
2013-01-07 22:34:00,26.4,19.9,29.62,South,179,0.0,1.0,76,0.00,,---,0.00,VWS V14.00,2013-01-08 04:34:00,
2013-01-07 22:39:00,26.4,20.2,29.62,South,179,0.0,1.0,77,0.00,,---,0.00,VWS V14.00,2013-01-08 04:39:00,
2013-01-07 22:44:00,26.6,20.4,29.62,South,179,0.0,1.0,77,0.00,,---,0.00,VWS V14.00,2013-01-08 04:44:00,
2013-01-07 22:49:00,26.6,20.4,29.62,South,179,0.0,1.0,77,0.00,,---,0.00,VWS V14.00,2013-01-08 04:49:00,
2013-01-07 22:54:00,26.2,20.0,29.62,South,179,0.0,1.0,77,0.00,,---,0.00,VWS V14.00,2013-01-08 04:54:00,
2013-01-07 22:59:00,26.4,20.5,29.62,South,179,0.0,1.0,78,0.00,,---,0.00,VWS V14.00,2013-01-08 04:59:00,
2013-01-07 23:00:00,26.4,20.5,29.62,South,179,0.0,1.0,78,0.00,,---,0.00,VWS V14.00,2013-01-08 05:00:00,
2013-01-07 23:05:00,26.2,20.3,29.59,South,179,0.0,1.0,78,0.00,,---,0.00,VWS V14.00,2013-01-08 05:05:00,
2013-01-07 23:10:00,26.6,20.7,29.59,South,179,0.0,1.0,78,0.00,,---,0.00,VWS V14.00,2013-01-08 05:10:00,
2013-01-07 23:15:00,26.8,20.9,29.59,South,179,0.0,1.0,78,0.00,,---,0.00,VWS V14.00,2013-01-08 05:15:00,
2013-01-07 23:20:00,26.6,20.7,29.59,South,179,0.0,1.0,78,0.00,,---,0.00,VWS V14.00,2013-01-08 05:20:00,
2013-01-07 23:25:00,26.6,20.7,29.59,South,179,0.0,1.0,78,0.00,,---,0.00,VWS V14.00,2013-01-08 05:25:00,
2013-01-07 23:30:00,26.1,20.1,29.59,South,179,0.0,1.0,78,0.00,,---,0.00,VWS V14.00,2013-01-08 05:30:00,
2013-01-07 23:35:00,25.9,20.0,29.59,South,179,0.0,1.0,78,0.00,,---,0.00,VWS V14.00,2013-01-08 05:35:00,
2013-01-07 23:40:00,25.7,19.8,29.59,South,179,0.0,1.0,78,0.00,,---,0.00,VWS V14.00,2013-01-08 05:40:00,
2013-01-07 23:45:00,25.3,19.5,29.59,South,179,0.0,1.0,78,0.00,,---,0.00,VWS V14.00,2013-01-08 05:45:00,
2013-01-07 23:50:00,25.0,19.1,29.59,South,179,0.0,1.0,78,0.00,,---,0.00,VWS V14.00,2013-01-08 05:50:00,
2013-01-07 23:55:00,24.8,19.2,29.59,South,179,0.0,1.0,79,0.00,,---,0.00,VWS V14.00,2013-01-08 05:55:00,